Regional Weather Roundup
Issued by NWS

Home | Current Version | Previous Version | Text Only | Print | Product List | Glossary On
Versions: 1 2 3 4 5 6 7 8 9 10 11 12 13 14 15 16 17 18 19 20 21 22 23 24 25 26 27 28 29 30 31 32 33 34 35 36 37 38 39 40 41 42 43 44 45 46 47 48 49 50
000
ASUS43 KBIS 222010
RWRND

NORTH DAKOTA REGIONAL WEATHER ROUNDUP
NATIONAL WEATHER SERVICE BISMARCK ND
200 PM CST WED FEB 22 2017

NOTE: "FAIR" INDICATES FEW OR NO CLOUDS BELOW 12,000 FEET WITH NO
SIGNIFICANT WEATHER AND/OR OBSTRUCTIONS TO VISIBILITY.


NDZ001>003-009>011-017-222100-
NORTHWEST NORTH DAKOTA

CITY           SKY/WX    TMP DP  RH WIND       PRES   REMARKS
WILLISTON      CLOUDY    33  26  75 NE9       29.92S
MINOT          CLOUDY    33  28  81 N13       29.87R
MINOT AFB      CLOUDY    32  26  78 N12       29.87R
$$

NDZ018>021-031>035-040>046-222100-
SOUTHWEST NORTH DAKOTA

CITY           SKY/WX    TMP DP  RH WIND       PRES   REMARKS
BISMARCK       LGT SNOW  35  32  88 N13       29.83R FOG
DICKINSON      CLOUDY    30  26  85 N12       29.84R
GARRISON         N/A     31  28  89 N10       29.86R
HETTINGER ARPT CLOUDY    32  28  85 N14       29.84R
$$

NDZ004>008-012>016-024-026-027-054-222100-
NORTHEAST NORTH DAKOTA

CITY           SKY/WX    TMP DP  RH WIND       PRES   REMARKS
GRAND FORKS    CLOUDY    35  24  64 N18       29.78S
GRND FRKS AFB  PTSUNNY   34  29  81 N17       29.80R
DEVILS LAKE    CLOUDY    32  27  81 N16       29.84R
$$

NDZ022-023-025-028>030-036>039-047>053-222100-
SOUTHEAST NORTH DAKOTA

CITY           SKY/WX    TMP DP  RH WIND       PRES   REMARKS
FARGO          LGT SNOW  34  33  96 N17       29.72R FOG
JAMESTOWN      LGT SNOW  32  30  92 N17G26    29.78R FOG
$$




USA.gov is the U.S. government's official web portal to all federal, state and local government web resources and services.